Home   Weather   France   Nice   Past weeks
Flag for France

Past Weather in Nice, Alpes-Maritimes, France — Yesterday and Last 2 Weeks

Currently: 77 °F. Sunny. (Weather station: Nice Airport, France). See more current weather

Past Weather in Nice — Graph

°F

Nice Temperature Yesterday

Maximum temperature yesterday: 73 °F (at 11:00 am)
Minimum temperature yesterday: 63 °F (at 6:00 am)
Average temperature yesterday: 70 °F

High & Low Weather Summary for the Past Weeks

 TemperatureHumidityPressure
High79 °F (Jun 18, 9:30 am)94% (Jun 9, 11:00 pm)30.12 "Hg (Jun 9, 11:00 pm)
Low61 °F (Jun 14, 4:00 am)45% (Jun 18, 9:30 am)29.65 "Hg (Jun 9, 3:30 pm)
Average70 °F75%29.92 "Hg
* Reported Jun 3 1:00 pm — Jun 18 1:00 pm, Nice. Weather by CustomWeather, © 2024

Note: Actual official high and low records may vary slightly from our data, if they occured in-between our weather recording intervals... More about our weather records

Nice Weather History for the Previous 24 Hours

Scroll right to see more
 ConditionsComfort  
Time TempWeatherWind HumidityBarometerVisibility
1:00 pm
Tue, Jun 18
77 °FPassing clouds.9 mph57%30.04 "HgN/A
12:30 pm77 °FSunny.14 mph57%30.04 "Hg10 mi
11:30 am77 °FSunny.14 mph54%30.04 "Hg10 mi
10:30 am77 °FSunny.14 mph57%30.04 "Hg10 mi
9:30 am79 °FSunny.5 mph45%30.04 "Hg10 mi
8:30 am77 °FSunny.8 mph47%30.01 "Hg10 mi
7:30 am72 °FSunny.9 mph61%30.01 "Hg10 mi
7:00 am70 °FSunny.8 mph64%30.01 "Hg10 mi
6:30 am68 °FSunny.8 mph69%30.01 "Hg10 mi
6:00 am68 °FSunny.7 mph69%30.01 "Hg10 mi
5:30 am68 °FPassing clouds.6 mph69%30.04 "HgN/A
5:00 am68 °FClear.5 mph69%30.01 "Hg10 mi
4:30 am68 °FClear.5 mph69%30.01 "Hg10 mi
4:00 am68 °FClear.8 mph69%30.01 "Hg10 mi
3:30 am68 °FClear.6 mph69%30.01 "Hg10 mi
3:00 am68 °FClear.6 mph73%30.01 "Hg10 mi
2:30 am68 °FClear.7 mph73%30.04 "Hg10 mi
2:00 am68 °FClear.6 mph78%30.04 "Hg10 mi
1:30 am66 °FClear.7 mph83%30.04 "Hg10 mi
1:00 am68 °FClear.5 mph83%30.04 "Hg10 mi
12:30 am68 °FClear.3 mph83%30.04 "Hg10 mi
12:00 am70 °FClear.7 mph83%30.04 "Hg10 mi
11:30 pm
Mon, Jun 17
70 °FClear.9 mph83%30.04 "Hg10 mi
11:00 pm70 °FClear.9 mph83%30.04 "Hg10 mi
10:30 pm70 °FClear.10 mph83%30.04 "Hg10 mi
10:00 pm70 °FClear.10 mph83%30.04 "Hg10 mi
9:30 pm70 °FClear.10 mph83%30.04 "Hg10 mi
9:00 pm70 °FSunny.10 mph83%30.04 "Hg10 mi
8:30 pm72 °FSunny.12 mph78%30.01 "Hg10 mi
8:00 pm72 °FSunny.10 mph78%30.01 "Hg10 mi
7:30 pm72 °FSunny.10 mph78%30.01 "Hg10 mi
6:30 pm73 °FPassing clouds.12 mph74%30.04 "HgN/A
6:00 pm73 °FPassing clouds.12 mph74%30.04 "HgN/A
5:30 pm73 °FPassing clouds.13 mph69%30.04 "HgN/A
4:30 pm73 °FPassing clouds.14 mph69%30.04 "HgN/A
3:00 pm73 °FPassing clouds.14 mph69%30.04 "HgN/A
2:00 pm73 °FPassing clouds.14 mph69%30.04 "HgN/A
Weather by CustomWeather, © 2024

See weather overview